IBADAL6 Weather Reports


Display with metric or nautical units.
time (UTC)temp
F
wind
direction
speed
MPH
gust
MPH
rain 1hr
in
rain 24hr
in
rain mn
in
humidity
%
barometer
mb
20260507191527 62 130 1.0 7.0 0.00 0.00 0.00 80 1013.8
20260507190026 62 97 3.0 7.0 0.00 0.00 0.00 79 1013.7
20260507184524 62 169 2.0 7.0 0.00 0.00 0.00 79 1013.6
20260507183025 62 129 3.0 8.0 0.00 0.00 0.00 79 1013.4
20260507181523 62 96 4.0 7.0 0.00 0.00 0.00 78 1013.2
20260507180122 63 101 3.0 7.0 0.00 0.00 0.00 77 1013.2
20260507174540 63 85 3.0 9.0 0.00 0.00 0.00 77 1013.2
20260507173024 63 69 5.0 7.0 0.00 0.00 0.00 76 1013.4
20260507171527 64 121 4.0 8.0 0.00 0.00 0.00 76 1013.3
20260507170024 64 100 4.0 8.0 0.00 0.00 0.00 75 1013.1
20260507164521 64 137 3.0 11.0 0.00 0.00 0.00 74 1013.1
20260507163022 64 70 6.0 9.0 0.00 0.00 0.00 73 1012.9
20260507161521 64 124 4.0 8.0 0.00 0.00 0.00 73 1013.1
20260507160020 65 105 3.0 8.0 0.00 0.00 0.00 73 1013.0
20260507154519 65 127 4.0 8.0 0.00 0.00 0.00 72 1013.0
20260507153018 65 130 6.0 9.0 0.00 0.00 0.00 72 1013.5
20260507151513 65 138 5.0 11.0 0.00 0.00 0.00 71 1013.4
20260507150012 65 141 5.0 9.0 0.00 0.00 0.00 70 1013.4
20260507144512 65 146 4.0 10.0 0.00 0.00 0.00 70 1013.4
20260507143010 65 133 3.0 10.0 0.00 0.00 0.00 71 1013.5
20260507141508 66 83 3.0 10.0 0.00 0.00 0.00 68 1013.4
20260507140009 66 70 3.0 11.0 0.00 0.00 0.00 69 1013.7
20260507134506 66 158 5.0 8.0 0.00 0.00 0.00 68 1014.1
20260507133005 66 114 4.0 10.0 0.00 0.00 0.00 68 1014.2
20260507131503 66 97 4.0 9.0 0.00 0.00 0.00 68 1014.4
20260507130001 65 113 5.0 11.0 0.00 0.00 0.00 69 1014.5
20260507124604 66 152 6.0 10.0 0.00 0.00 0.00 69 1014.6
20260507124503 66 150 6.0 10.0 0.00 0.00 0.00 69 1014.6
20260507123202 65 136 5.0 10.0 0.00 0.00 0.00 70 1014.8
20260507121600 65 128 6.0 11.0 0.00 0.00 0.00 72 1014.7
20260507120057 65 134 8.0 11.0 0.00 0.00 0.00 70 1014.8
20260507113128 65 136 5.0 10.0 0.00 0.00 0.00 69 1014.9
20260507111555 66 89 3.0 8.0 0.00 0.00 0.00 68 1014.9
20260507110053 66 125 4.0 10.0 0.00 0.00 0.00 70 1015.1
20260507104600 66 127 5.0 9.0 0.00 0.00 0.00 70 1015.1
20260507103050 66 122 5.0 10.0 0.00 0.00 0.00 71 1015.3
20260507101553 65 97 3.0 8.0 0.00 0.00 0.00 73 1015.2
20260507100054 65 116 4.0 11.0 0.00 0.00 0.00 74 1015.5
20260507094543 64 105 5.0 9.0 0.00 0.00 0.00 75 1015.4
20260507093041 65 139 4.0 8.0 0.00 0.00 0.00 73 1015.4
20260507091543 63 143 5.0 11.0 0.00 0.00 0.00 76 1015.4
20260507090039 63 96 5.0 11.0 0.00 0.00 0.00 76 1015.2
20260507084549 63 99 5.0 11.0 0.00 0.00 0.00 76 1015.1
20260507083033 63 107 3.0 12.0 0.00 0.00 0.00 77 1015.2
20260507081532 63 95 6.0 11.0 0.00 0.00 0.00 77 1015.2
20260507080030 63 70 4.0 9.0 0.00 0.00 0.00 77 1015.2
20260507074530 62 80 2.0 7.0 0.00 0.00 0.00 78 1015.1
20260507073029 63 86 2.0 6.0 0.00 0.00 0.00 78 1015.1
20260507071534 63 74 2.0 7.0 0.00 0.00 0.00 76 1015.0
20260507070026 62 125 1.0 7.0 0.00 0.00 0.00 78 1014.9
20260507064522 62 89 1.0 5.0 0.00 0.00 0.00 78 1014.7
20260507063020 60 243 0.0 1.0 0.00 0.00 0.00 78 1014.5
20260507061520 60 298 0.0 2.0 0.00 0.00 0.00 78 1014.4
20260507060032 59 235 0.0 2.0 0.00 0.00 0.00 80 1014.3
20260507054532 58 302 1.0 3.0 0.00 0.00 0.00 81 1014.1
20260507053020 58 288 0.0 2.0 0.00 0.00 0.00 81 1014.1
20260507051519 57 304 1.0 3.0 0.00 0.00 0.00 82 1013.9
20260507050041 57 304 2.0 3.0 0.00 0.00 0.00 82 1013.7
20260507044522 57 307 2.0 4.0 0.00 0.00 0.00 82 1013.8
20260507041514 57 307 1.0 3.0 0.00 0.00 0.00 82 1013.8
20260507040015 57 307 1.0 2.0 0.00 0.00 0.00 82 1013.7
20260507034512 57 301 1.0 2.0 0.00 0.00 0.00 81 1013.8
20260507033018 57 290 0.0 1.0 0.00 0.00 0.00 81 1013.9
20260507031509 58 304 0.0 2.0 0.00 0.00 0.00 81 1013.9
20260507030010 58 303 1.0 2.0 0.00 0.00 0.00 81 1014.0
20260507024507 58 303 1.0 2.0 0.00 0.00 0.00 81 1013.9
20260507023006 58 297 1.0 3.0 0.00 0.00 0.00 81 1013.9
20260507021510 59 304 0.0 2.0 0.00 0.00 0.00 80 1013.8
20260507020003 59 311 1.0 3.0 0.00 0.00 0.00 80 1014.0
20260507014601 60 29 2.0 4.0 0.00 0.00 0.00 79 1014.1
20260507013058 60 18 1.0 4.0 0.00 0.00 0.00 80 1014.1
20260507011559 60 18 2.0 5.0 0.00 0.00 0.00 81 1014.1
20260507010054 61 34 2.0 8.0 0.00 0.00 0.00 80 1014.1
20260507004552 61 112 1.0 7.0 0.00 0.00 0.00 79 1014.3
20260507003051 61 87 0.0 5.0 0.00 0.00 0.00 78 1014.3
20260507001551 61 103 2.0 5.0 0.00 0.00 0.00 79 1014.4
20260507000053 61 128 2.0 7.0 0.00 0.00 0.00 80 1014.5
20260506234605 61 58 3.0 8.0 0.00 0.00 0.00 80 1014.5
20260506233048 62 63 4.0 7.0 0.00 0.00 0.00 81 1014.4
20260506231547 61 142 1.0 5.0 0.00 0.00 0.00 82 1014.4
20260506230044 61 305 0.0 2.0 0.00 0.00 0.00 79 1014.4
20260506224546 61 302 1.0 2.0 0.00 0.00 0.00 78 1014.3
20260506223048 62 17 1.0 3.0 0.00 0.00 0.00 78 1014.4
20260506220039 61 137 0.0 0.0 0.00 0.00 0.00 77 1014.4
20260506214542 61 137 0.0 0.0 0.00 0.00 0.00 78 1014.3
20260506213038 61 137 0.0 0.0 0.00 0.00 0.00 78 1014.4
20260506211537 61 137 0.0 0.0 0.00 0.00 0.00 78 1014.3
20260506210038 61 137 0.0 1.0 0.00 0.00 0.00 77 1014.2
20260506204548 61 157 0.0 0.0 0.00 0.00 0.00 78 1014.1
20260506203032 61 157 0.0 0.0 0.00 0.00 0.00 77 1013.9
20260506201519 61 157 0.0 0.0 0.00 0.00 0.00 76 1013.6
20260506200014 61 157 0.0 0.0 0.00 0.00 0.00 76 1013.4
20260506194514 62 157 0.0 2.0 0.00 0.00 0.00 75 1013.1
20260506193017 62 145 0.0 2.0 0.00 0.00 0.00 75 1013.1